Time,TemperatureF,DewpointF,PressureIn,WindDirection,WindDirectionDegrees,WindSpeedMPH,WindSpeedGustMPH,Humidity,HourlyPrecipIn,Conditions,Clouds,dailyrainin,SolarRadiationWatts/m^2,SoftwareType,DateUTC
2013-02-04 00:00:00,49.6,39.5,29.98,ESE,112,1.0,1.0,68,0.00,,,0.00,0,WeatherCatV1.11B39,2013-02-04 07:00:00,
2013-02-04 00:05:00,49.6,39.5,29.99,ESE,112,1.0,1.0,68,0.00,,,0.00,0,WeatherCatV1.11B39,2013-02-04 07:05:00,
2013-02-04 00:10:00,49.5,39.4,29.99,ESE,112,1.0,1.0,68,0.00,,,0.00,0,WeatherCatV1.11B39,2013-02-04 07:10:00,
2013-02-04 00:15:00,49.3,39.6,29.98,ESE,112,1.0,1.0,69,0.00,,,0.00,0,WeatherCatV1.11B39,2013-02-04 07:15:00,
2013-02-04 00:20:00,49.2,39.5,29.98,ESE,112,1.0,2.0,69,0.00,,,0.00,0,WeatherCatV1.11B39,2013-02-04 07:20:00,
2013-02-04 00:25:00,49.1,39.4,29.98,ESE,112,2.0,2.0,69,0.00,,,0.00,0,WeatherCatV1.11B39,2013-02-04 07:25:00,
2013-02-04 00:30:00,49.0,39.3,29.99,ESE,112,2.0,2.0,69,0.00,,,0.00,0,WeatherCatV1.11B39,2013-02-04 07:30:00,
2013-02-04 00:35:00,49.0,39.6,29.98,ESE,111,2.0,3.0,70,0.00,,,0.00,0,WeatherCatV1.11B39,2013-02-04 07:35:00,
2013-02-04 00:40:00,49.0,39.6,29.98,ESE,111,2.0,3.0,70,0.00,,,0.00,0,WeatherCatV1.11B39,2013-02-04 07:40:00,
2013-02-04 00:45:00,49.5,39.8,29.98,ESE,111,2.0,3.0,69,0.00,,,0.00,0,WeatherCatV1.11B39,2013-02-04 07:45:00,
2013-02-04 00:50:00,50.4,39.9,29.98,ESE,111,0.0,1.0,67,0.00,,,0.00,0,WeatherCatV1.11B39,2013-02-04 07:50:00,
2013-02-04 00:55:00,50.8,39.9,29.98,ESE,111,0.0,0.0,66,0.00,,,0.00,0,WeatherCatV1.11B39,2013-02-04 07:55:00,
2013-02-04 01:00:00,50.9,40.3,29.98,ESE,111,0.0,0.0,67,0.00,,,0.00,0,WeatherCatV1.11B39,2013-02-04 08:00:00,
2013-02-04 01:05:00,50.9,40.7,29.98,ESE,111,0.0,0.0,68,0.00,,,0.00,0,WeatherCatV1.11B39,2013-02-04 08:05:00,
2013-02-04 01:10:00,50.9,40.3,29.98,ESE,111,0.0,1.0,67,0.00,,,0.00,0,WeatherCatV1.11B39,2013-02-04 08:10:00,
2013-02-04 01:15:00,51.0,40.8,29.98,ESE,111,0.0,1.0,68,0.00,,,0.00,0,WeatherCatV1.11B39,2013-02-04 08:15:00,
2013-02-04 01:20:00,50.9,40.7,29.98,ESE,111,0.0,1.0,68,0.00,,,0.00,0,WeatherCatV1.11B39,2013-02-04 08:20:00,
2013-02-04 01:25:00,50.9,40.3,29.98,ESE,111,0.0,1.0,67,0.00,,,0.00,0,WeatherCatV1.11B39,2013-02-04 08:25:00,
2013-02-04 01:30:00,50.5,40.3,29.98,ESE,111,0.0,1.0,68,0.00,,,0.00,0,WeatherCatV1.11B39,2013-02-04 08:30:00,
2013-02-04 01:35:00,50.1,40.3,29.98,ESE,111,0.0,0.0,69,0.00,,,0.00,0,WeatherCatV1.11B39,2013-02-04 08:35:00,
2013-02-04 01:40:00,49.8,40.0,29.98,ESE,111,0.0,0.0,69,0.00,,,0.00,0,WeatherCatV1.11B39,2013-02-04 08:40:00,
2013-02-04 01:45:00,49.7,40.3,29.98,ESE,111,0.0,0.0,70,0.00,,,0.00,0,WeatherCatV1.11B39,2013-02-04 08:45:00,
2013-02-04 01:50:00,49.1,39.7,29.98,ESE,111,0.0,0.0,70,0.00,,,0.00,0,WeatherCatV1.11B39,2013-02-04 08:50:00,
2013-02-04 01:55:00,49.1,40.1,29.97,ESE,111,1.0,2.0,71,0.00,,,0.00,0,WeatherCatV1.11B39,2013-02-04 08:55:00,
2013-02-04 02:00:00,49.0,40.0,29.97,ESE,111,1.0,1.0,71,0.00,,,0.00,0,WeatherCatV1.11B39,2013-02-04 09:00:00,
2013-02-04 02:05:00,48.7,40.1,29.97,ESE,111,2.0,2.0,72,0.00,,,0.00,0,WeatherCatV1.11B39,2013-02-04 09:05:00,
2013-02-04 02:10:00,48.5,39.9,29.97,ESE,111,0.0,1.0,72,0.00,,,0.00,0,WeatherCatV1.11B39,2013-02-04 09:10:00,
2013-02-04 02:15:00,48.3,39.7,29.97,ESE,111,0.0,2.0,72,0.00,,,0.00,0,WeatherCatV1.11B39,2013-02-04 09:15:00,
2013-02-04 02:20:00,48.2,40.0,29.97,ESE,111,0.0,1.0,73,0.00,,,0.00,0,WeatherCatV1.11B39,2013-02-04 09:20:00,
2013-02-04 02:25:00,47.9,40.0,29.97,ESE,111,1.0,1.0,74,0.00,,,0.00,0,WeatherCatV1.11B39,2013-02-04 09:25:00,
2013-02-04 02:30:00,47.6,39.7,29.97,ESE,111,0.0,1.0,74,0.00,,,0.00,0,WeatherCatV1.11B39,2013-02-04 09:30:00,
2013-02-04 02:35:00,47.4,39.9,29.97,ESE,111,0.0,1.0,75,0.00,,,0.00,0,WeatherCatV1.11B39,2013-02-04 09:35:00,
2013-02-04 02:40:00,47.2,39.7,29.97,ESE,111,0.0,0.0,75,0.00,,,0.00,0,WeatherCatV1.11B39,2013-02-04 09:40:00,
2013-02-04 02:45:00,47.2,39.7,29.97,ESE,111,0.0,0.0,75,0.00,,,0.00,0,WeatherCatV1.11B39,2013-02-04 09:45:00,
2013-02-04 02:50:00,47.2,40.0,29.97,ESE,111,0.0,0.0,76,0.00,,,0.00,0,WeatherCatV1.11B39,2013-02-04 09:50:00,
2013-02-04 02:55:00,47.1,39.9,29.97,ESE,111,0.0,0.0,76,0.00,,,0.00,0,WeatherCatV1.11B39,2013-02-04 09:55:00,
2013-02-04 03:00:00,47.0,39.8,29.97,ESE,111,1.0,1.0,76,0.00,,,0.00,0,WeatherCatV1.11B39,2013-02-04 10:00:00,
2013-02-04 03:05:00,47.0,39.8,29.97,ESE,111,2.0,2.0,76,0.00,,,0.00,0,WeatherCatV1.11B39,2013-02-04 10:05:00,
2013-02-04 03:10:00,46.9,39.7,29.97,ESE,111,0.0,2.0,76,0.00,,,0.00,0,WeatherCatV1.11B39,2013-02-04 10:10:00,
2013-02-04 03:15:00,46.7,39.9,29.97,ESE,111,1.0,2.0,77,0.00,,,0.00,0,WeatherCatV1.11B39,2013-02-04 10:15:00,
2013-02-04 03:20:00,46.6,39.4,29.97,ESE,111,1.0,2.0,76,0.00,,,0.00,0,WeatherCatV1.11B39,2013-02-04 10:20:00,
2013-02-04 03:25:00,46.6,39.4,29.97,ESE,111,1.0,1.0,76,0.00,,,0.00,0,WeatherCatV1.11B39,2013-02-04 10:25:00,
2013-02-04 03:30:00,46.4,39.6,29.97,ESE,111,0.0,1.0,77,0.00,,,0.00,0,WeatherCatV1.11B39,2013-02-04 10:30:00,
2013-02-04 03:35:00,46.4,39.6,29.97,ESE,111,0.0,0.0,77,0.00,,,0.00,0,WeatherCatV1.11B39,2013-02-04 10:35:00,
2013-02-04 03:40:00,46.2,39.4,29.96,ESE,111,0.0,0.0,77,0.00,,,0.00,0,WeatherCatV1.11B39,2013-02-04 10:40:00,
2013-02-04 03:45:00,46.1,39.6,29.96,ESE,111,0.0,0.0,78,0.00,,,0.00,0,WeatherCatV1.11B39,2013-02-04 10:45:00,
2013-02-04 03:50:00,45.8,39.3,29.97,ESE,111,0.0,1.0,78,0.00,,,0.00,0,WeatherCatV1.11B39,2013-02-04 10:50:00,
2013-02-04 03:52:00,45.8,39.3,29.96,ESE,111,0.0,1.0,78,0.00,,,0.00,0,WeatherCatV1.11B39,2013-02-04 10:52:00,
2013-02-04 03:57:00,45.8,39.0,29.96,ESE,111,2.0,2.0,77,0.00,,,0.00,0,WeatherCatV1.11B39,2013-02-04 10:57:00,
2013-02-04 04:02:00,45.8,39.3,29.96,ESE,111,1.0,2.0,78,0.00,,,0.00,0,WeatherCatV1.11B39,2013-02-04 11:02:00,
2013-02-04 04:07:00,45.8,39.3,29.96,ESE,111,0.0,1.0,78,0.00,,,0.00,0,WeatherCatV1.11B39,2013-02-04 11:07:00,
2013-02-04 04:12:00,46.2,39.7,29.96,ESE,111,0.0,1.0,78,0.00,,,0.00,0,WeatherCatV1.11B39,2013-02-04 11:12:00,
2013-02-04 04:17:00,46.5,39.3,29.96,ESE,111,0.0,0.0,76,0.00,,,0.00,0,WeatherCatV1.11B39,2013-02-04 11:17:00,
2013-02-04 04:22:00,46.8,40.0,29.96,ESE,111,0.0,0.0,77,0.00,,,0.00,0,WeatherCatV1.11B39,2013-02-04 11:22:00,
2013-02-04 04:27:00,46.9,40.1,29.96,ESE,111,0.0,0.0,77,0.00,,,0.00,0,WeatherCatV1.11B39,2013-02-04 11:27:00,
2013-02-04 04:32:00,46.9,40.4,29.96,ESE,111,0.0,0.0,78,0.00,,,0.00,0,WeatherCatV1.11B39,2013-02-04 11:32:00,
2013-02-04 04:37:00,46.9,40.4,29.96,ESE,111,0.0,1.0,78,0.00,,,0.00,0,WeatherCatV1.11B39,2013-02-04 11:37:00,
2013-02-04 04:42:00,47.0,40.5,29.96,ESE,111,0.0,0.0,78,0.00,,,0.00,0,WeatherCatV1.11B39,2013-02-04 11:42:00,
2013-02-04 04:47:00,47.0,40.5,29.95,ESE,111,0.0,1.0,78,0.00,,,0.00,0,WeatherCatV1.11B39,2013-02-04 11:47:00,
2013-02-04 04:52:00,46.9,40.4,29.95,ESE,111,0.0,1.0,78,0.00,,,0.00,0,WeatherCatV1.11B39,2013-02-04 11:52:00,
2013-02-04 04:57:00,46.8,40.3,29.95,ESE,111,0.0,1.0,78,0.00,,,0.00,0,WeatherCatV1.11B39,2013-02-04 11:57:00,
2013-02-04 05:02:00,46.6,40.1,29.95,ESE,111,0.0,0.0,78,0.00,,,0.00,0,WeatherCatV1.11B39,2013-02-04 12:02:00,
2013-02-04 05:07:00,46.0,39.5,29.95,ESE,111,0.0,0.0,78,0.00,,,0.00,0,WeatherCatV1.11B39,2013-02-04 12:07:00,
2013-02-04 05:12:00,45.6,39.5,29.96,ESE,111,0.0,0.0,79,0.00,,,0.00,0,WeatherCatV1.11B39,2013-02-04 12:12:00,
2013-02-04 05:17:00,45.4,39.3,29.95,ESE,111,2.0,3.0,79,0.00,,,0.00,0,WeatherCatV1.11B39,2013-02-04 12:17:00,
2013-02-04 05:22:00,45.3,39.5,29.96,ESE,111,1.0,2.0,80,0.00,,,0.00,0,WeatherCatV1.11B39,2013-02-04 12:22:00,
2013-02-04 05:27:00,45.3,39.2,29.96,ESE,111,0.0,1.0,79,0.00,,,0.00,0,WeatherCatV1.11B39,2013-02-04 12:27:00,
2013-02-04 05:32:00,45.2,39.1,29.95,ESE,111,0.0,1.0,79,0.00,,,0.00,0,WeatherCatV1.11B39,2013-02-04 12:32:00,
2013-02-04 05:37:00,45.1,39.0,29.95,ESE,111,0.0,0.0,79,0.00,,,0.00,0,WeatherCatV1.11B39,2013-02-04 12:37:00,
2013-02-04 05:42:00,45.1,39.0,29.95,ESE,111,0.0,1.0,79,0.00,,,0.00,0,WeatherCatV1.11B39,2013-02-04 12:42:00,
2013-02-04 05:47:00,45.0,39.2,29.95,ESE,111,0.0,0.0,80,0.00,,,0.00,0,WeatherCatV1.11B39,2013-02-04 12:47:00,
2013-02-04 05:52:00,44.8,39.0,29.95,ESE,111,0.0,0.0,80,0.00,,,0.00,0,WeatherCatV1.11B39,2013-02-04 12:52:00,
2013-02-04 05:57:00,44.4,38.6,29.95,ESE,111,0.0,0.0,80,0.00,,,0.00,0,WeatherCatV1.11B39,2013-02-04 12:57:00,
2013-02-04 06:02:00,44.3,38.8,29.96,ESE,111,0.0,0.0,81,0.00,,,0.00,0,WeatherCatV1.11B39,2013-02-04 13:02:00,
2013-02-04 06:07:00,44.1,38.6,29.96,ESE,111,0.0,1.0,81,0.00,,,0.00,0,WeatherCatV1.11B39,2013-02-04 13:07:00,
2013-02-04 06:12:00,44.1,39.0,29.95,ESE,111,0.0,1.0,82,0.00,,,0.00,0,WeatherCatV1.11B39,2013-02-04 13:12:00,
2013-02-04 06:17:00,44.5,38.7,29.96,ESE,111,2.0,2.0,80,0.00,,,0.00,0,WeatherCatV1.11B39,2013-02-04 13:17:00,
2013-02-04 06:22:00,44.6,38.8,29.96,ESE,111,0.0,0.0,80,0.00,,,0.00,0,WeatherCatV1.11B39,2013-02-04 13:22:00,
2013-02-04 06:27:00,44.5,38.4,29.96,ESE,111,1.0,1.0,79,0.00,,,0.00,0,WeatherCatV1.11B39,2013-02-04 13:27:00,
2013-02-04 06:32:00,44.3,38.5,29.96,ESE,111,0.0,0.0,80,0.00,,,0.00,0,WeatherCatV1.11B39,2013-02-04 13:32:00,
2013-02-04 06:37:00,44.3,38.5,29.96,ESE,111,0.0,0.0,80,0.00,,,0.00,0,WeatherCatV1.11B39,2013-02-04 13:37:00,
2013-02-04 06:42:00,44.1,38.6,29.96,ESE,111,0.0,0.0,81,0.00,,,0.00,0,WeatherCatV1.11B39,2013-02-04 13:42:00,
2013-02-04 06:47:00,43.8,38.4,29.97,ESE,111,0.0,1.0,81,0.00,,,0.00,0,WeatherCatV1.11B39,2013-02-04 13:47:00,
2013-02-04 06:52:00,43.7,38.6,29.97,ESE,111,0.0,0.0,82,0.00,,,0.00,0,WeatherCatV1.11B39,2013-02-04 13:52:00,
2013-02-04 06:57:00,43.8,38.7,29.97,ESE,111,0.0,1.0,82,0.00,,,0.00,0,WeatherCatV1.11B39,2013-02-04 13:57:00,
2013-02-04 07:02:00,44.0,38.9,29.97,ESE,111,0.0,0.0,82,0.00,,,0.00,0,WeatherCatV1.11B39,2013-02-04 14:02:00,
2013-02-04 07:07:00,43.9,38.8,29.97,ESE,111,0.0,0.0,82,0.00,,,0.00,5,WeatherCatV1.11B39,2013-02-04 14:07:00,
2013-02-04 07:12:00,43.9,38.5,29.97,ESE,111,0.0,0.0,81,0.00,,,0.00,0,WeatherCatV1.11B39,2013-02-04 14:12:00,
2013-02-04 07:17:00,43.8,38.4,29.97,ESE,111,0.0,0.0,81,0.00,,,0.00,0,WeatherCatV1.11B39,2013-02-04 14:17:00,
2013-02-04 07:22:00,43.7,38.6,29.97,ESE,111,0.0,0.0,82,0.00,,,0.00,5,WeatherCatV1.11B39,2013-02-04 14:22:00,
2013-02-04 07:27:00,43.8,38.7,29.97,ESE,111,0.0,0.0,82,0.00,,,0.00,11,WeatherCatV1.11B39,2013-02-04 14:27:00,
2013-02-04 07:32:00,43.9,38.5,29.98,ESE,111,0.0,0.0,81,0.00,,,0.00,18,WeatherCatV1.11B39,2013-02-04 14:32:00,
2013-02-04 07:37:00,44.1,38.6,29.98,ESE,111,3.0,3.0,81,0.00,,,0.00,28,WeatherCatV1.11B39,2013-02-04 14:37:00,
2013-02-04 07:42:00,44.5,39.0,29.98,ESE,111,0.0,2.0,81,0.00,,,0.00,33,WeatherCatV1.11B39,2013-02-04 14:42:00,
2013-02-04 07:47:00,44.8,39.3,29.98,ESE,111,1.0,2.0,81,0.00,,,0.00,44,WeatherCatV1.11B39,2013-02-04 14:47:00,
2013-02-04 07:52:00,45.1,39.3,29.99,ESE,111,0.0,0.0,80,0.00,,,0.00,58,WeatherCatV1.11B39,2013-02-04 14:52:00,
2013-02-04 07:57:00,45.7,39.6,29.99,ESE,111,0.0,0.0,79,0.00,,,0.00,63,WeatherCatV1.11B39,2013-02-04 14:57:00,
2013-02-04 08:02:00,45.9,39.8,29.99,ESE,111,0.0,1.0,79,0.00,,,0.00,67,WeatherCatV1.11B39,2013-02-04 15:02:00,
2013-02-04 08:07:00,46.2,39.7,29.99,ESE,111,0.0,0.0,78,0.00,,,0.00,84,WeatherCatV1.11B39,2013-02-04 15:07:00,
2013-02-04 08:12:00,46.4,40.2,30.00,ESE,111,0.0,0.0,79,0.00,,,0.00,97,WeatherCatV1.11B39,2013-02-04 15:12:00,
2013-02-04 08:17:00,47.0,40.5,30.00,ESE,111,0.0,0.0,78,0.00,,,0.00,109,WeatherCatV1.11B39,2013-02-04 15:17:00,
2013-02-04 08:23:00,47.7,41.2,30.00,ESE,111,0.0,0.0,78,0.00,,,0.00,121,WeatherCatV1.11B39,2013-02-04 15:23:00,
2013-02-04 08:28:00,48.2,40.7,30.00,ESE,111,0.0,0.0,75,0.00,,,0.00,135,WeatherCatV1.11B39,2013-02-04 15:28:00,
2013-02-04 08:33:00,48.8,40.9,30.00,ESE,111,0.0,0.0,74,0.00,,,0.00,144,WeatherCatV1.11B39,2013-02-04 15:33:00,
2013-02-04 08:38:00,49.3,40.7,30.00,ESE,111,0.0,1.0,72,0.00,,,0.00,162,WeatherCatV1.11B39,2013-02-04 15:38:00,
2013-02-04 08:42:00,49.9,40.5,30.01,ESE,111,0.0,1.0,70,0.00,,,0.00,163,WeatherCatV1.11B39,2013-02-04 15:42:00,
2013-02-04 08:47:00,50.2,40.4,30.01,ESE,111,0.0,0.0,69,0.00,,,0.00,185,WeatherCatV1.11B39,2013-02-04 15:47:00,
2013-02-04 08:53:00,50.5,40.3,30.01,ESE,111,0.0,1.0,68,0.00,,,0.00,206,WeatherCatV1.11B39,2013-02-04 15:53:00,
2013-02-04 08:58:00,50.7,39.8,30.01,ESE,111,0.0,1.0,66,0.00,,,0.00,229,WeatherCatV1.11B39,2013-02-04 15:58:00,
2013-02-04 09:03:00,51.1,40.1,30.01,ESE,111,0.0,0.0,66,0.00,,,0.00,220,WeatherCatV1.11B39,2013-02-04 16:03:00,
2013-02-04 09:08:00,51.6,40.2,30.01,ESE,111,0.0,1.0,65,0.00,,,0.00,206,WeatherCatV1.11B39,2013-02-04 16:08:00,
2013-02-04 09:13:00,52.2,40.4,30.01,ESE,111,0.0,1.0,64,0.00,,,0.00,237,WeatherCatV1.11B39,2013-02-04 16:13:00,
2013-02-04 09:18:00,52.6,40.4,30.01,ESE,113,0.0,1.0,63,0.00,,,0.00,209,WeatherCatV1.11B39,2013-02-04 16:18:00,
2013-02-04 09:23:00,52.8,40.1,30.01,ESE,113,0.0,2.0,62,0.00,,,0.00,216,WeatherCatV1.11B39,2013-02-04 16:23:00,
2013-02-04 09:28:00,52.8,40.1,30.01,ESE,113,0.0,2.0,62,0.00,,,0.00,211,WeatherCatV1.11B39,2013-02-04 16:28:00,
2013-02-04 09:33:00,53.0,40.3,30.01,ESE,113,0.0,0.0,62,0.00,,,0.00,223,WeatherCatV1.11B39,2013-02-04 16:33:00,
2013-02-04 09:38:00,53.6,40.9,30.01,ESE,113,0.0,1.0,62,0.00,,,0.00,253,WeatherCatV1.11B39,2013-02-04 16:38:00,
2013-02-04 09:43:00,54.3,41.1,30.02,ESE,113,2.0,2.0,61,0.00,,,0.00,262,WeatherCatV1.11B39,2013-02-04 16:43:00,
2013-02-04 09:48:00,54.6,41.0,30.01,ESE,113,1.0,2.0,60,0.00,,,0.00,304,WeatherCatV1.11B39,2013-02-04 16:48:00,
2013-02-04 09:53:00,55.4,41.3,30.01,ESE,113,2.0,2.0,59,0.00,,,0.00,381,WeatherCatV1.11B39,2013-02-04 16:53:00,
2013-02-04 09:58:00,55.8,40.8,30.01,South,189,3.0,3.0,57,0.00,,,0.00,392,WeatherCatV1.11B39,2013-02-04 16:58:00,
2013-02-04 10:03:00,56.2,40.2,30.01,South,189,0.0,2.0,55,0.00,,,0.00,380,WeatherCatV1.11B39,2013-02-04 17:03:00,
2013-02-04 10:08:00,56.9,39.9,30.01,South,189,2.0,3.0,53,0.00,,,0.00,468,WeatherCatV1.11B39,2013-02-04 17:08:00,
2013-02-04 10:13:00,58.1,39.6,30.01,South,189,0.0,3.0,50,0.00,,,0.00,478,WeatherCatV1.11B39,2013-02-04 17:13:00,
2013-02-04 10:18:00,58.7,40.1,30.01,South,189,2.0,3.0,50,0.00,,,0.00,485,WeatherCatV1.11B39,2013-02-04 17:18:00,
2013-02-04 10:23:00,59.6,39.9,30.01,South,190,3.0,4.0,48,0.00,,,0.00,392,WeatherCatV1.11B39,2013-02-04 17:23:00,
2013-02-04 10:28:00,59.8,39.5,30.01,South,187,0.0,3.0,47,0.00,,,0.00,385,WeatherCatV1.11B39,2013-02-04 17:28:00,
2013-02-04 10:33:00,60.0,39.2,30.01,South,188,1.0,4.0,46,0.00,,,0.00,434,WeatherCatV1.11B39,2013-02-04 17:33:00,
2013-02-04 10:38:00,60.2,39.3,30.01,South,188,1.0,3.0,46,0.00,,,0.00,564,WeatherCatV1.11B39,2013-02-04 17:38:00,
2013-02-04 10:43:00,60.2,39.3,30.01,SW,220,1.0,4.0,46,0.00,,,0.00,413,WeatherCatV1.11B39,2013-02-04 17:43:00,
2013-02-04 10:48:00,61.0,39.5,30.01,SW,220,1.0,2.0,45,0.00,,,0.00,619,WeatherCatV1.11B39,2013-02-04 17:48:00,
2013-02-04 10:53:00,61.7,39.6,30.01,SW,220,2.0,2.0,44,0.00,,,0.00,596,WeatherCatV1.11B39,2013-02-04 17:53:00,
2013-02-04 10:58:00,62.5,39.7,30.01,SW,218,1.0,2.0,43,0.00,,,0.00,568,WeatherCatV1.11B39,2013-02-04 17:58:00,
2013-02-04 11:03:00,62.7,39.3,30.00,South,180,4.0,6.0,42,0.00,,,0.00,547,WeatherCatV1.11B39,2013-02-04 18:03:00,
2013-02-04 11:08:00,62.7,39.3,30.01,SSW,200,4.0,4.0,42,0.00,,,0.00,571,WeatherCatV1.11B39,2013-02-04 18:08:00,
2013-02-04 11:13:00,63.7,40.2,30.00,SW,223,3.0,5.0,42,0.00,,,0.00,715,WeatherCatV1.11B39,2013-02-04 18:13:00,
2013-02-04 11:18:00,63.6,39.5,30.00,SW,223,4.0,4.0,41,0.00,,,0.00,517,WeatherCatV1.11B39,2013-02-04 18:18:00,
2013-02-04 11:23:00,64.5,40.3,30.00,WSW,238,4.0,5.0,41,0.00,,,0.00,441,WeatherCatV1.11B39,2013-02-04 18:23:00,
2013-02-04 11:28:00,64.4,39.5,30.00,WSW,249,5.0,6.0,40,0.00,,,0.00,524,WeatherCatV1.11B39,2013-02-04 18:28:00,
2013-02-04 11:33:00,64.3,40.7,29.99,SW,228,1.0,3.0,42,0.00,,,0.00,431,WeatherCatV1.11B39,2013-02-04 18:33:00,
2013-02-04 11:38:00,64.0,39.8,29.99,West,271,3.0,6.0,41,0.00,,,0.00,413,WeatherCatV1.11B39,2013-02-04 18:38:00,
2013-02-04 11:43:00,63.9,39.7,29.99,WSW,237,0.0,5.0,41,0.00,,,0.00,475,WeatherCatV1.11B39,2013-02-04 18:43:00,
2013-02-04 11:48:00,64.0,39.8,29.99,WSW,243,4.0,7.0,41,0.00,,,0.00,432,WeatherCatV1.11B39,2013-02-04 18:48:00,
2013-02-04 11:53:00,64.6,39.7,29.99,SW,236,3.0,5.0,40,0.00,,,0.00,429,WeatherCatV1.11B39,2013-02-04 18:53:00,
2013-02-04 11:58:00,64.0,39.8,29.98,WSW,244,1.0,5.0,41,0.00,,,0.00,462,WeatherCatV1.11B39,2013-02-04 18:58:00,
2013-02-04 12:03:00,65.0,39.4,29.98,WSW,244,3.0,4.0,39,0.00,,,0.00,485,WeatherCatV1.11B39,2013-02-04 19:03:00,
2013-02-04 12:08:00,65.1,39.5,29.98,WSW,245,0.0,2.0,39,0.00,,,0.00,459,WeatherCatV1.11B39,2013-02-04 19:08:00,
2013-02-04 12:13:00,65.6,40.0,29.98,SW,234,3.0,4.0,39,0.00,,,0.00,497,WeatherCatV1.11B39,2013-02-04 19:13:00,
2013-02-04 12:18:00,65.8,38.8,29.98,SW,234,1.0,3.0,37,0.00,,,0.00,585,WeatherCatV1.11B39,2013-02-04 19:18:00,
2013-02-04 12:23:00,66.2,39.8,29.97,SSW,202,1.0,4.0,38,0.00,,,0.00,496,WeatherCatV1.11B39,2013-02-04 19:23:00,
2013-02-04 12:28:00,67.5,40.3,29.97,SW,232,2.0,4.0,37,0.00,,,0.00,663,WeatherCatV1.11B39,2013-02-04 19:28:00,
2013-02-04 12:33:00,67.2,39.3,29.97,SW,232,1.0,1.0,36,0.00,,,0.00,721,WeatherCatV1.11B39,2013-02-04 19:33:00,
2013-02-04 12:38:00,67.1,38.5,29.96,WSW,238,3.0,5.0,35,0.00,,,0.00,657,WeatherCatV1.11B39,2013-02-04 19:38:00,
2013-02-04 12:43:00,66.9,39.8,29.96,SW,235,3.0,6.0,37,0.00,,,0.00,571,WeatherCatV1.11B39,2013-02-04 19:43:00,
2013-02-04 12:48:00,67.7,39.1,29.95,SW,236,2.0,5.0,35,0.00,,,0.00,501,WeatherCatV1.11B39,2013-02-04 19:48:00,
2013-02-04 12:53:00,67.6,39.0,29.95,WNW,302,3.0,6.0,35,0.00,,,0.00,455,WeatherCatV1.11B39,2013-02-04 19:53:00,
2013-02-04 12:58:00,67.5,38.9,29.95,West,276,2.0,3.0,35,0.00,,,0.00,454,WeatherCatV1.11B39,2013-02-04 19:58:00,
2013-02-04 13:03:00,67.6,39.0,29.95,West,276,0.0,3.0,35,0.00,,,0.00,383,WeatherCatV1.11B39,2013-02-04 20:03:00,
2013-02-04 13:08:00,67.5,38.9,29.94,West,261,6.0,6.0,35,0.00,,,0.00,524,WeatherCatV1.11B39,2013-02-04 20:08:00,
2013-02-04 13:13:00,67.5,39.6,29.94,West,262,0.0,3.0,36,0.00,,,0.00,483,WeatherCatV1.11B39,2013-02-04 20:13:00,
2013-02-04 13:18:00,67.7,39.8,29.94,WNW,289,3.0,3.0,36,0.00,,,0.00,461,WeatherCatV1.11B39,2013-02-04 20:18:00,
2013-02-04 13:23:00,67.6,39.7,29.94,WNW,284,5.0,6.0,36,0.00,,,0.00,387,WeatherCatV1.11B39,2013-02-04 20:23:00,
2013-02-04 13:28:00,67.8,39.9,29.94,West,265,5.0,6.0,36,0.00,,,0.00,649,WeatherCatV1.11B39,2013-02-04 20:28:00,
2013-02-04 13:33:00,68.4,41.1,29.93,SW,231,7.0,7.0,37,0.00,,,0.00,468,WeatherCatV1.11B39,2013-02-04 20:33:00,
2013-02-04 13:38:00,68.7,40.7,29.93,WSW,254,5.0,6.0,36,0.00,,,0.00,726,WeatherCatV1.11B39,2013-02-04 20:38:00,
2013-02-04 13:43:00,68.5,40.5,29.93,WSW,249,0.0,2.0,36,0.00,,,0.00,338,WeatherCatV1.11B39,2013-02-04 20:43:00,
2013-02-04 13:48:00,68.3,41.0,29.93,West,263,1.0,4.0,37,0.00,,,0.00,366,WeatherCatV1.11B39,2013-02-04 20:48:00,
2013-02-04 13:53:00,69.0,40.9,29.92,NW,315,3.0,7.0,36,0.00,,,0.00,587,WeatherCatV1.11B39,2013-02-04 20:53:00,
2013-02-04 13:58:00,69.0,40.9,29.92,WNW,294,7.0,7.0,36,0.00,,,0.00,418,WeatherCatV1.11B39,2013-02-04 20:58:00,
2013-02-04 14:03:00,68.1,40.8,29.92,NW,322,3.0,7.0,37,0.00,,,0.00,566,WeatherCatV1.11B39,2013-02-04 21:03:00,
2013-02-04 14:08:00,68.5,40.5,29.92,West,281,8.0,8.0,36,0.00,,,0.00,575,WeatherCatV1.11B39,2013-02-04 21:08:00,
2013-02-04 14:13:00,69.7,40.8,29.92,WSW,253,6.0,7.0,35,0.00,,,0.00,696,WeatherCatV1.11B39,2013-02-04 21:13:00,
2013-02-04 14:18:00,69.6,40.0,29.92,NW,310,1.0,3.0,34,0.00,,,0.00,457,WeatherCatV1.11B39,2013-02-04 21:18:00,
2013-02-04 14:23:00,69.4,40.6,29.91,North,353,6.0,6.0,35,0.00,,,0.00,381,WeatherCatV1.11B39,2013-02-04 21:23:00,
2013-02-04 14:28:00,69.1,40.3,29.91,West,263,4.0,7.0,35,0.00,,,0.00,413,WeatherCatV1.11B39,2013-02-04 21:28:00,
2013-02-04 14:33:00,69.0,40.9,29.91,WNW,296,2.0,4.0,36,0.00,,,0.00,431,WeatherCatV1.11B39,2013-02-04 21:33:00,
2013-02-04 14:38:00,69.1,40.3,29.91,WNW,294,0.0,3.0,35,0.00,,,0.00,439,WeatherCatV1.11B39,2013-02-04 21:38:00,
2013-02-04 14:43:00,69.4,40.6,29.91,West,279,4.0,5.0,35,0.00,,,0.00,554,WeatherCatV1.11B39,2013-02-04 21:43:00,
2013-02-04 14:48:00,70.0,40.3,29.91,West,265,7.0,9.0,34,0.00,,,0.00,534,WeatherCatV1.11B39,2013-02-04 21:48:00,
2013-02-04 14:53:00,69.7,40.1,29.91,West,275,2.0,6.0,34,0.00,,,0.00,446,WeatherCatV1.11B39,2013-02-04 21:53:00,
2013-02-04 14:58:00,69.8,40.2,29.91,WNW,284,5.0,10.0,34,0.00,,,0.00,494,WeatherCatV1.11B39,2013-02-04 21:58:00,
2013-02-04 15:03:00,69.6,39.2,29.91,WSW,247,1.0,5.0,33,0.00,,,0.00,480,WeatherCatV1.11B39,2013-02-04 22:03:00,
2013-02-04 15:08:00,69.1,39.5,29.91,West,280,7.0,7.0,34,0.00,,,0.00,207,WeatherCatV1.11B39,2013-02-04 22:08:00,
2013-02-04 15:13:00,69.2,39.6,29.91,SW,230,1.0,6.0,34,0.00,,,0.00,394,WeatherCatV1.11B39,2013-02-04 22:13:00,
2013-02-04 15:18:00,68.9,39.4,29.91,WNW,290,3.0,9.0,34,0.00,,,0.00,243,WeatherCatV1.11B39,2013-02-04 22:18:00,
2013-02-04 15:23:00,68.9,39.4,29.91,West,267,2.0,2.0,34,0.00,,,0.00,429,WeatherCatV1.11B39,2013-02-04 22:23:00,
2013-02-04 15:28:00,69.5,39.1,29.91,WSW,245,4.0,8.0,33,0.00,,,0.00,353,WeatherCatV1.11B39,2013-02-04 22:28:00,
2013-02-04 15:33:00,69.2,38.9,29.91,SW,230,0.0,2.0,33,0.00,,,0.00,297,WeatherCatV1.11B39,2013-02-04 22:33:00,
2013-02-04 15:38:00,69.3,39.7,29.91,SW,233,4.0,7.0,34,0.00,,,0.00,422,WeatherCatV1.11B39,2013-02-04 22:38:00,
2013-02-04 15:43:00,69.8,39.4,29.91,South,174,3.0,7.0,33,0.00,,,0.00,260,WeatherCatV1.11B39,2013-02-04 22:43:00,
2013-02-04 15:48:00,69.4,39.0,29.91,SW,229,5.0,5.0,33,0.00,,,0.00,258,WeatherCatV1.11B39,2013-02-04 22:48:00,
2013-02-04 15:53:00,69.5,39.1,29.91,SW,222,6.0,6.0,33,0.00,,,0.00,216,WeatherCatV1.11B39,2013-02-04 22:53:00,
2013-02-04 15:58:00,69.2,39.6,29.90,WNW,288,5.0,6.0,34,0.00,,,0.00,327,WeatherCatV1.11B39,2013-02-04 22:58:00,
2013-02-04 16:03:00,68.9,39.4,29.91,WSW,241,5.0,6.0,34,0.00,,,0.00,367,WeatherCatV1.11B39,2013-02-04 23:03:00,
2013-02-04 16:08:00,69.4,39.8,29.90,SW,234,4.0,6.0,34,0.00,,,0.00,346,WeatherCatV1.11B39,2013-02-04 23:08:00,
2013-02-04 16:13:00,69.2,39.6,29.90,WSW,239,2.0,3.0,34,0.00,,,0.00,329,WeatherCatV1.11B39,2013-02-04 23:13:00,
2013-02-04 16:18:00,69.3,39.7,29.90,SSE,150,3.0,4.0,34,0.00,,,0.00,304,WeatherCatV1.11B39,2013-02-04 23:18:00,
2013-02-04 16:23:00,68.8,39.3,29.90,West,261,3.0,6.0,34,0.00,,,0.00,295,WeatherCatV1.11B39,2013-02-04 23:23:00,
2013-02-04 16:28:00,68.7,38.4,29.90,WNW,290,3.0,3.0,33,0.00,,,0.00,272,WeatherCatV1.11B39,2013-02-04 23:28:00,
2013-02-04 16:33:00,68.5,39.0,29.90,NNW,338,3.0,4.0,34,0.00,,,0.00,257,WeatherCatV1.11B39,2013-02-04 23:33:00,
2013-02-04 16:38:00,68.9,38.6,29.90,WNW,285,2.0,5.0,33,0.00,,,0.00,239,WeatherCatV1.11B39,2013-02-04 23:38:00,
2013-02-04 16:43:00,69.2,38.9,29.90,WNW,286,3.0,4.0,33,0.00,,,0.00,218,WeatherCatV1.11B39,2013-02-04 23:43:00,
2013-02-04 16:48:00,68.9,37.8,29.90,West,263,3.0,7.0,32,0.00,,,0.00,179,WeatherCatV1.11B39,2013-02-04 23:48:00,
2013-02-04 16:53:00,68.9,38.6,29.90,SW,233,4.0,6.0,33,0.00,,,0.00,153,WeatherCatV1.11B39,2013-02-04 23:53:00,
2013-02-04 16:58:00,68.9,38.6,29.90,West,263,3.0,6.0,33,0.00,,,0.00,83,WeatherCatV1.11B39,2013-02-04 23:58:00,
2013-02-04 17:02:00,68.6,38.3,29.90,West,261,2.0,5.0,33,0.00,,,0.00,98,WeatherCatV1.11B39,2013-02-05 00:02:00,
2013-02-04 17:07:00,68.4,38.2,29.90,WSW,255,3.0,4.0,33,0.00,,,0.00,74,WeatherCatV1.11B39,2013-02-05 00:07:00,
2013-02-04 17:12:00,68.3,38.8,29.90,WSW,255,0.0,4.0,34,0.00,,,0.00,90,WeatherCatV1.11B39,2013-02-05 00:12:00,
2013-02-04 17:17:00,68.0,38.6,29.90,WSW,252,4.0,6.0,34,0.00,,,0.00,69,WeatherCatV1.11B39,2013-02-05 00:17:00,
2013-02-04 17:22:00,67.9,39.2,29.90,West,281,4.0,7.0,35,0.00,,,0.00,58,WeatherCatV1.11B39,2013-02-05 00:22:00,
2013-02-04 17:27:00,67.5,38.9,29.90,West,272,5.0,7.0,35,0.00,,,0.00,35,WeatherCatV1.11B39,2013-02-05 00:27:00,
2013-02-04 17:32:00,66.8,39.0,29.90,West,280,7.0,8.0,36,0.00,,,0.00,26,WeatherCatV1.11B39,2013-02-05 00:32:00,
2013-02-04 17:37:00,66.4,39.3,29.90,WNW,285,5.0,8.0,37,0.00,,,0.00,21,WeatherCatV1.11B39,2013-02-05 00:37:00,
2013-02-04 17:42:00,65.9,38.9,29.90,West,267,6.0,9.0,37,0.00,,,0.00,16,WeatherCatV1.11B39,2013-02-05 00:42:00,
2013-02-04 17:47:00,65.4,39.1,29.90,WNW,296,5.0,7.0,38,0.00,,,0.00,12,WeatherCatV1.11B39,2013-02-05 00:47:00,
2013-02-04 17:52:00,64.9,39.3,29.90,WNW,282,3.0,4.0,39,0.00,,,0.00,11,WeatherCatV1.11B39,2013-02-05 00:52:00,
2013-02-04 17:57:00,64.4,38.9,29.90,West,271,2.0,3.0,39,0.00,,,0.00,7,WeatherCatV1.11B39,2013-02-05 00:57:00,
2013-02-04 18:02:00,63.8,39.6,29.90,West,271,2.0,4.0,41,0.00,,,0.00,5,WeatherCatV1.11B39,2013-02-05 01:02:00,
2013-02-04 18:07:00,63.2,39.1,29.90,West,272,2.0,2.0,41,0.00,,,0.00,0,WeatherCatV1.11B39,2013-02-05 01:07:00,
2013-02-04 18:12:00,62.6,39.2,29.91,West,272,2.0,3.0,42,0.00,,,0.00,0,WeatherCatV1.11B39,2013-02-05 01:12:00,
2013-02-04 18:17:00,61.9,39.2,29.91,West,272,1.0,2.0,43,0.00,,,0.00,0,WeatherCatV1.11B39,2013-02-05 01:17:00,
2013-02-04 18:22:00,61.5,39.4,29.91,West,272,0.0,0.0,44,0.00,,,0.00,0,WeatherCatV1.11B39,2013-02-05 01:22:00,
2013-02-04 18:27:00,60.8,38.7,29.91,West,272,0.0,0.0,44,0.00,,,0.00,0,WeatherCatV1.11B39,2013-02-05 01:27:00,
2013-02-04 18:32:00,59.8,39.0,29.91,West,272,0.0,0.0,46,0.00,,,0.00,0,WeatherCatV1.11B39,2013-02-05 01:32:00,
2013-02-04 18:37:00,59.0,38.8,29.91,West,272,0.0,0.0,47,0.00,,,0.00,0,WeatherCatV1.11B39,2013-02-05 01:37:00,
2013-02-04 18:42:00,58.2,39.1,29.91,West,272,0.0,0.0,49,0.00,,,0.00,0,WeatherCatV1.11B39,2013-02-05 01:42:00,
2013-02-04 18:47:00,57.7,39.2,29.91,West,272,1.0,1.0,50,0.00,,,0.00,0,WeatherCatV1.11B39,2013-02-05 01:47:00,
2013-02-04 18:52:00,57.1,39.1,29.91,West,272,0.0,0.0,51,0.00,,,0.00,0,WeatherCatV1.11B39,2013-02-05 01:52:00,
2013-02-04 18:57:00,56.4,39.5,29.91,West,272,0.0,1.0,53,0.00,,,0.00,0,WeatherCatV1.11B39,2013-02-05 01:57:00,
2013-02-04 19:02:00,56.2,39.3,29.92,West,272,1.0,1.0,53,0.00,,,0.00,0,WeatherCatV1.11B39,2013-02-05 02:02:00,
2013-02-04 19:07:00,56.2,39.8,29.92,West,272,0.0,1.0,54,0.00,,,0.00,0,WeatherCatV1.11B39,2013-02-05 02:07:00,
2013-02-04 19:12:00,56.5,39.6,29.92,West,272,1.0,2.0,53,0.00,,,0.00,0,WeatherCatV1.11B39,2013-02-05 02:12:00,
2013-02-04 19:17:00,56.9,39.9,29.92,West,272,0.0,0.0,53,0.00,,,0.00,0,WeatherCatV1.11B39,2013-02-05 02:17:00,
2013-02-04 19:22:00,56.4,40.0,29.92,West,272,2.0,2.0,54,0.00,,,0.00,0,WeatherCatV1.11B39,2013-02-05 02:22:00,
2013-02-04 19:27:00,56.0,39.6,29.92,West,267,0.0,1.0,54,0.00,,,0.00,0,WeatherCatV1.11B39,2013-02-05 02:27:00,
2013-02-04 19:32:00,55.4,40.0,29.93,West,269,1.0,3.0,56,0.00,,,0.00,0,WeatherCatV1.11B39,2013-02-05 02:32:00,
2013-02-04 19:37:00,54.9,40.0,29.93,West,269,2.0,2.0,57,0.00,,,0.00,0,WeatherCatV1.11B39,2013-02-05 02:37:00,
2013-02-04 19:42:00,54.7,40.2,29.93,West,268,0.0,2.0,58,0.00,,,0.00,0,WeatherCatV1.11B39,2013-02-05 02:42:00,
2013-02-04 19:47:00,54.6,40.1,29.93,West,269,2.0,2.0,58,0.00,,,0.00,0,WeatherCatV1.11B39,2013-02-05 02:47:00,
2013-02-04 19:52:00,54.5,40.0,29.93,West,270,1.0,2.0,58,0.00,,,0.00,0,WeatherCatV1.11B39,2013-02-05 02:52:00,
2013-02-04 19:57:00,54.3,39.8,29.94,West,271,1.0,2.0,58,0.00,,,0.00,0,WeatherCatV1.11B39,2013-02-05 02:57:00,
2013-02-04 20:02:00,54.5,40.0,29.94,West,271,0.0,1.0,58,0.00,,,0.00,0,WeatherCatV1.11B39,2013-02-05 03:02:00,
2013-02-04 20:07:00,54.2,39.7,29.94,West,271,1.0,1.0,58,0.00,,,0.00,0,WeatherCatV1.11B39,2013-02-05 03:07:00,
2013-02-04 20:12:00,53.7,39.7,29.94,West,271,0.0,1.0,59,0.00,,,0.00,0,WeatherCatV1.11B39,2013-02-05 03:12:00,
2013-02-04 20:17:00,53.2,39.7,29.94,West,271,0.0,1.0,60,0.00,,,0.00,0,WeatherCatV1.11B39,2013-02-05 03:17:00,
2013-02-04 20:22:00,53.2,39.7,29.94,West,270,1.0,2.0,60,0.00,,,0.00,0,WeatherCatV1.11B39,2013-02-05 03:22:00,
2013-02-04 20:27:00,53.4,39.9,29.95,West,268,2.0,3.0,60,0.00,,,0.00,0,WeatherCatV1.11B39,2013-02-05 03:27:00,
2013-02-04 20:32:00,53.8,40.2,29.95,West,268,0.0,3.0,60,0.00,,,0.00,0,WeatherCatV1.11B39,2013-02-05 03:32:00,
2013-02-04 20:37:00,54.0,40.0,29.95,West,268,1.0,2.0,59,0.00,,,0.00,0,WeatherCatV1.11B39,2013-02-05 03:37:00,
2013-02-04 20:42:00,53.7,39.7,29.95,West,269,1.0,2.0,59,0.00,,,0.00,0,WeatherCatV1.11B39,2013-02-05 03:42:00,
2013-02-04 20:47:00,53.2,39.7,29.95,West,269,1.0,2.0,60,0.00,,,0.00,0,WeatherCatV1.11B39,2013-02-05 03:47:00,
2013-02-04 20:52:00,52.9,39.8,29.96,West,269,1.0,2.0,61,0.00,,,0.00,0,WeatherCatV1.11B39,2013-02-05 03:52:00,
2013-02-04 20:57:00,52.9,39.8,29.96,West,269,1.0,2.0,61,0.00,,,0.00,0,WeatherCatV1.11B39,2013-02-05 03:57:00,
2013-02-04 21:02:00,53.0,39.9,29.96,West,269,1.0,1.0,61,0.00,,,0.00,0,WeatherCatV1.11B39,2013-02-05 04:02:00,
2013-02-04 21:07:00,52.8,39.7,29.96,West,269,0.0,2.0,61,0.00,,,0.00,0,WeatherCatV1.11B39,2013-02-05 04:07:00,
2013-02-04 21:12:00,52.6,40.0,29.96,West,268,1.0,2.0,62,0.00,,,0.00,0,WeatherCatV1.11B39,2013-02-05 04:12:00,
2013-02-04 21:17:00,52.6,39.5,29.96,West,265,1.0,2.0,61,0.00,,,0.00,0,WeatherCatV1.11B39,2013-02-05 04:17:00,
2013-02-04 21:22:00,52.7,39.6,29.97,West,265,2.0,2.0,61,0.00,,,0.00,0,WeatherCatV1.11B39,2013-02-05 04:22:00,
2013-02-04 21:27:00,52.6,39.5,29.97,West,266,3.0,3.0,61,0.00,,,0.00,0,WeatherCatV1.11B39,2013-02-05 04:27:00,
2013-02-04 21:32:00,52.4,39.8,29.97,West,268,1.0,2.0,62,0.00,,,0.00,0,WeatherCatV1.11B39,2013-02-05 04:32:00,
2013-02-04 21:37:00,52.1,39.9,29.97,West,269,0.0,1.0,63,0.00,,,0.00,0,WeatherCatV1.11B39,2013-02-05 04:37:00,
2013-02-04 21:42:00,51.7,39.5,29.97,West,269,0.0,1.0,63,0.00,,,0.00,0,WeatherCatV1.11B39,2013-02-05 04:42:00,
2013-02-04 21:47:00,51.3,39.5,29.97,West,269,1.0,1.0,64,0.00,,,0.00,0,WeatherCatV1.11B39,2013-02-05 04:47:00,
2013-02-04 21:52:00,50.9,39.6,29.97,West,269,0.0,1.0,65,0.00,,,0.00,0,WeatherCatV1.11B39,2013-02-05 04:52:00,
2013-02-04 21:57:00,50.4,39.5,29.97,West,269,0.0,2.0,66,0.00,,,0.00,0,WeatherCatV1.11B39,2013-02-05 04:57:00,
2013-02-04 22:00:00,50.2,39.3,29.97,West,269,0.0,0.0,66,0.00,,,0.00,0,WeatherCatV1.11B39,2013-02-05 05:00:00,
2013-02-04 22:05:00,49.9,39.4,29.97,West,269,1.0,1.0,67,0.00,,,0.00,0,WeatherCatV1.11B39,2013-02-05 05:05:00,
2013-02-04 22:10:00,49.2,38.7,29.98,West,269,1.0,1.0,67,0.00,,,0.00,0,WeatherCatV1.11B39,2013-02-05 05:10:00,
2013-02-04 22:15:00,48.7,39.0,29.98,West,271,2.0,3.0,69,0.00,,,0.00,0,WeatherCatV1.11B39,2013-02-05 05:15:00,
2013-02-04 22:20:00,48.9,39.2,29.98,West,274,2.0,3.0,69,0.00,,,0.00,0,WeatherCatV1.11B39,2013-02-05 05:20:00,
2013-02-04 22:25:00,49.3,39.6,29.98,West,276,0.0,2.0,69,0.00,,,0.00,0,WeatherCatV1.11B39,2013-02-05 05:25:00,
2013-02-04 22:30:00,49.7,39.6,29.98,West,276,0.0,2.0,68,0.00,,,0.00,0,WeatherCatV1.11B39,2013-02-05 05:30:00,
2013-02-04 22:35:00,49.4,39.3,29.98,NNW,337,1.0,2.0,68,0.00,,,0.00,0,WeatherCatV1.11B39,2013-02-05 05:35:00,
2013-02-04 22:40:00,49.1,39.4,29.98,NNW,337,1.0,3.0,69,0.00,,,0.00,0,WeatherCatV1.11B39,2013-02-05 05:40:00,
2013-02-04 22:45:00,49.2,39.5,29.98,NNW,337,1.0,2.0,69,0.00,,,0.00,0,WeatherCatV1.11B39,2013-02-05 05:45:00,
2013-02-04 22:50:00,49.3,39.6,29.98,NNW,337,2.0,3.0,69,0.00,,,0.00,0,WeatherCatV1.11B39,2013-02-05 05:50:00,
2013-02-04 22:55:00,49.5,39.8,29.99,NNW,337,0.0,1.0,69,0.00,,,0.00,0,WeatherCatV1.11B39,2013-02-05 05:55:00,
2013-02-04 23:00:00,49.3,39.6,29.99,NNW,337,1.0,1.0,69,0.00,,,0.00,0,WeatherCatV1.11B39,2013-02-05 06:00:00,
2013-02-04 23:05:00,48.9,39.6,29.99,NNW,337,2.0,2.0,70,0.00,,,0.00,0,WeatherCatV1.11B39,2013-02-05 06:05:00,
2013-02-04 23:10:00,48.4,39.4,29.99,NNW,337,0.0,1.0,71,0.00,,,0.00,0,WeatherCatV1.11B39,2013-02-05 06:10:00,
2013-02-04 23:15:00,48.1,39.5,29.99,NNW,337,0.0,0.0,72,0.00,,,0.00,0,WeatherCatV1.11B39,2013-02-05 06:15:00,
2013-02-04 23:20:00,47.7,39.1,29.99,NNW,337,0.0,0.0,72,0.00,,,0.00,0,WeatherCatV1.11B39,2013-02-05 06:20:00,
2013-02-04 23:25:00,47.4,39.2,29.99,NNW,337,0.0,0.0,73,0.00,,,0.00,0,WeatherCatV1.11B39,2013-02-05 06:25:00,
2013-02-04 23:30:00,47.1,39.2,29.99,NNW,337,1.0,1.0,74,0.00,,,0.00,0,WeatherCatV1.11B39,2013-02-05 06:30:00,
2013-02-04 23:35:00,46.8,39.0,29.99,NNW,337,2.0,2.0,74,0.00,,,0.00,0,WeatherCatV1.11B39,2013-02-05 06:35:00,
2013-02-04 23:40:00,46.7,39.2,29.99,NNW,337,1.0,2.0,75,0.00,,,0.00,0,WeatherCatV1.11B39,2013-02-05 06:40:00,
2013-02-04 23:45:00,46.7,39.2,29.99,NNW,337,1.0,2.0,75,0.00,,,0.00,0,WeatherCatV1.11B39,2013-02-05 06:45:00,
2013-02-04 23:50:00,46.8,39.3,29.99,NNW,337,2.0,3.0,75,0.00,,,0.00,0,WeatherCatV1.11B39,2013-02-05 06:50:00,
2013-02-04 23:55:00,46.9,39.4,29.99,NNW,337,3.0,3.0,75,0.00,,,0.00,0,WeatherCatV1.11B39,2013-02-05 06:55:00,